Regional Weather Roundup
Issued by NWS

Home | Current Version | Previous Version | Graphics & Text | Print | Product List | Glossary On
Versions: 1 2 3 4 5 6 7 8 9 10 11 12 13 14 15 16 17 18 19 20 21 22 23 24 25 26 27
000
ASUS45 KBOI 251410
RWRID

IDAHO REGIONAL WEATHER ROUNDUP
NATIONAL WEATHER SERVICE BOISE ID
800 AM MDT SUN JUN 25 2017

NOTE: "FAIR" INDICATES FEW OR NO CLOUDS BELOW 12000 FEET
WITH NO SIGNIFICANT WEATHER AND/OR OBSTRUCTIONS TO VISIBILITY

IDZ012-014-251500-
SOUTHWEST IDAHO


CITY           SKY/WX    TMP DP  RH WIND       PRES   REMARKS
BOISE          SUNNY     67  41  38 E13       30.13R
CALDWELL       SUNNY     60  48  64 E3        30.12R
MOUNTAIN HOME  SUNNY     65  37  35 E10       30.14R
$$

IDZ016-017-251500-
SOUTHCENTRAL IDAHO


CITY           SKY/WX    TMP DP  RH WIND       PRES   REMARKS
BURLEY         SUNNY     57  46  66 CALM      30.22R
JEROME         SUNNY     66  37  34 E9        30.21R
TWIN FALLS     SUNNY     66  41  40 SE8       30.21R
$$

IDZ019>023-251500-
SOUTHEAST IDAHO


CITY           SKY/WX    TMP DP  RH WIND       PRES   REMARKS
IDAHO FALLS    SUNNY     57  46  66 N7        30.28S
POCATELLO      SUNNY     56  45  66 CALM      30.26S
REXBURG        SUNNY     55  44  66 E6        30.30R
$$

IDZ006-010-011-018-031-032-251500-
CENTRAL IDAHO MOUNTAINS


CITY           SKY/WX    TMP DP  RH WIND       PRES   REMARKS
MCCALL         SUNNY     53  41  63 CALM      30.24S
HAILEY         SUNNY     57  39  51 NW10      30.31R
STANLEY          N/A     47  36  65 CALM      30.39S
SALMON         SUNNY     52  41  66 CALM      30.29S
CHALLIS        SUNNY     57  41  55 CALM      30.32R
$$

IDZ002-004-006-007-026-251500-
NORTHERN IDAHO


CITY           SKY/WX    TMP DP  RH WIND       PRES   REMARKS
LEWISTON       SUNNY     64  50  60 NE8       30.10S
LOWELL           N/A     53  49  86 CALM      30.19S
COEUR D`ALENE  SUNNY     62  47  57 NE9       30.16
MULLAN PASS    SUNNY     58  33  39 SE9G16    30.33S
$$




USA.gov is the U.S. government's official web portal to all federal, state and local government web resources and services.